• In Spain
  • List of Countries
  • For 7 days
  • Water Temperature
  • Satellite Maps
  • Weather Map
  • Weather Widgets
  • user-avatar
    Login

    Hourly Weather Oran

    Today, 21 August, Monday

    Time Temperature Precipitation Wind Pressure Humidity
    00:00 +29°C° 0 mm 4 mps 753 mmHg 68%
    01:00 +29°C° 0 mm 4 mps 753 mmHg 69%
    02:00 +29°C° 0 mm 4 mps 753 mmHg 71%
    03:00 +28°C° 0 mm 4 mps 752 mmHg 73%
    04:00 +28°C° 0 mm 4 mps 753 mmHg 74%
    05:00 +28°C° 0 mm 3 mps 753 mmHg 76%
    06:00 +27°C° 0 mm 3 mps 753 mmHg 77%
    07:00 +28°C° 0 mm 3 mps 753 mmHg 71%
    08:00 +30°C° 0 mm 3 mps 753 mmHg 64%
    09:00 +31°C° 0 mm 3 mps 753 mmHg 57%
    10:00 +33°C° 0 mm 4 mps 753 mmHg 51%
    11:00 +35°C° 0 mm 4 mps 753 mmHg 45%
    12:00 +36°C° 0 mm 5 mps 753 mmHg 38%
    13:00 +36°C° 0 mm 5 mps 752 mmHg 38%
    14:00 +38°C° 0 mm 6 mps 752 mmHg 37%
    15:00 +38°C° 0 mm 6 mps 752 mmHg 37%
    16:00 +36°C° 0 mm 6 mps 751 mmHg 38%
    17:00 +35°C° 0 mm 6 mps 751 mmHg 40%
    18:00 +34°C° 0 mm 5 mps 751 mmHg 42%
    19:00 +34°C° 0 mm 5 mps 752 mmHg 45%
    20:00 +33°C° 0 mm 5 mps 752 mmHg 47%
    21:00 +32°C° 0 mm 4 mps 752 mmHg 50%
    22:00 +32°C° 0 mm 4 mps 752 mmHg 53%
    23:00 +30°C° 0 mm 3 mps 752 mmHg 56%

    Tomorrow, 22 August, Tuesday

    Time Temperature Precipitation Wind Pressure Humidity
    00:00 +29°C° 0 mm 3 mps 752 mmHg 58%
    01:00 +29°C° 0 mm 3 mps 752 mmHg 61%
    02:00 +28°C° 0 mm 3 mps 752 mmHg 64%
    03:00 +28°C° 0 mm 3 mps 752 mmHg 67%
    04:00 +28°C° 0 mm 2 mps 752 mmHg 69%
    05:00 +27°C° 0 mm 2 mps 752 mmHg 70%
    06:00 +27°C° 0 mm 2 mps 753 mmHg 72%
    07:00 +28°C° 0 mm 2 mps 753 mmHg 64%
    08:00 +30°C° 0 mm 2 mps 753 mmHg 56%
    09:00 +31°C° 0 mm 2 mps 753 mmHg 49%
    10:00 +33°C° 0 mm 3 mps 752 mmHg 43%
    11:00 +35°C° 0 mm 3 mps 752 mmHg 37%
    12:00 +36°C° 0 mm 4 mps 752 mmHg 31%
    13:00 +37°C° 0 mm 5 mps 752 mmHg 30%
    14:00 +37°C° 0 mm 5 mps 751 mmHg 28%
    15:00 +38°C° 0 mm 6 mps 751 mmHg 27%
    16:00 +37°C° 0 mm 5 mps 751 mmHg 28%
    17:00 +36°C° 0 mm 5 mps 751 mmHg 29%
    18:00 +35°C° 0 mm 5 mps 751 mmHg 30%
    19:00 +34°C° 0 mm 5 mps 751 mmHg 34%
    20:00 +33°C° 0 mm 4 mps 751 mmHg 37%
    21:00 +31°C° 0 mm 3 mps 752 mmHg 40%
    22:00 +31°C° 0 mm 3 mps 752 mmHg 42%
    23:00 +30°C° 0 mm 3 mps 751 mmHg 44%

    Day after tomorrow, 23 August, Wednesday

    Time Temperature Precipitation Wind Pressure Humidity
    00:00 +30°C° 0 mm 2 mps 751 mmHg 46%
    01:00 +29°C° 0 mm 2 mps 751 mmHg 49%
    02:00 +28°C° 0 mm 2 mps 751 mmHg 52%
    03:00 +28°C° 0 mm 2 mps 751 mmHg 54%
    04:00 +27°C° 0 mm 2 mps 751 mmHg 56%
    05:00 +27°C° 0 mm 2 mps 751 mmHg 58%
    06:00 +27°C° 0 mm 2 mps 751 mmHg 60%
    07:00 +29°C° 0 mm 2 mps 751 mmHg 51%
    08:00 +30°C° 0 mm 2 mps 752 mmHg 43%
    09:00 +32°C° 0 mm 2 mps 752 mmHg 34%
    10:00 +35°C° 0 mm 2 mps 752 mmHg 30%
    11:00 +36°C° 0 mm 3 mps 752 mmHg 27%
    12:00 +38°C° 0 mm 4 mps 751 mmHg 23%
    13:00 +38°C° 0 mm 4 mps 751 mmHg 23%
    14:00 +39°C° 0 mm 5 mps 751 mmHg 24%
    15:00 +39°C° 0 mm 5 mps 750 mmHg 25%
    16:00 +37°C° 0 mm 5 mps 750 mmHg 28%
    17:00 +36°C° 0 mm 5 mps 750 mmHg 31%
    18:00 +35°C° 0 mm 5 mps 750 mmHg 33%
    19:00 +34°C° 0 mm 4 mps 750 mmHg 37%
    20:00 +33°C° 0 mm 3 mps 751 mmHg 41%
    21:00 +33°C° 0 mm 3 mps 751 mmHg 45%
    22:00 +31°C° 0 mm 2 mps 751 mmHg 46%
    23:00 +30°C° 0 mm 2 mps 751 mmHg 48%

    24 August, Thursday

    Time Temperature Precipitation Wind Pressure Humidity
    00:00 +30°C° 0 mm 2 mps 751 mmHg 49%
    01:00 +30°C° 0 mm 2 mps 750 mmHg 51%
    02:00 +29°C° 0 mm 2 mps 750 mmHg 53%
    03:00 +29°C° 0 mm 2 mps 750 mmHg 55%
    04:00 +29°C° 0 mm 2 mps 750 mmHg 56%
    05:00 +29°C° 0 mm 2 mps 750 mmHg 57%
    06:00 +29°C° 0 mm 2 mps 750 mmHg 57%
    07:00 +30°C° 0 mm 2 mps 751 mmHg 53%
    08:00 +31°C° 0 mm 1 mps 751 mmHg 48%
    09:00 +32°C° 0 mm 1 mps 751 mmHg 44%
    10:00 +34°C° 0 mm 2 mps 751 mmHg 39%
    11:00 +36°C° 0 mm 2 mps 751 mmHg 34%
    12:00 +38°C° 0 mm 3 mps 750 mmHg 29%
    13:00 +38°C° 0 mm 3 mps 750 mmHg 29%
    14:00 +38°C° 0 mm 4 mps 750 mmHg 30%
    15:00 +38°C° 0 mm 4 mps 749 mmHg 31%
    16:00 +37°C° 0 mm 4 mps 749 mmHg 32%
    17:00 +37°C° 0 mm 3 mps 749 mmHg 33%
    18:00 +36°C° 0 mm 3 mps 749 mmHg 34%
    19:00 +35°C° 0 mm 2 mps 749 mmHg 37%
    20:00 +34°C° 0 mm 2 mps 749 mmHg 40%
    21:00 +33°C° 0 mm 1 mps 750 mmHg 43%
    22:00 +32°C° 0 mm 1 mps 750 mmHg 44%
    23:00 +32°C° 0 mm 2 mps 750 mmHg 44%

    25 August, Friday

    Time Temperature Precipitation Wind Pressure Humidity
    00:00 +32°C° 0 mm 2 mps 749 mmHg 45%
    01:00 +31°C° 0 mm 2 mps 749 mmHg 49%
    02:00 +31°C° 0 mm 1 mps 749 mmHg 52%
    03:00 +30°C° 0 mm 1 mps 749 mmHg 55%
    04:00 +29°C° 0 mm 1 mps 749 mmHg 57%
    05:00 +29°C° 0 mm 1 mps 749 mmHg 59%
    06:00 +27°C° 0 mm 0 mps 749 mmHg 61%
    07:00 +30°C° 0 mm 1 mps 749 mmHg 56%
    08:00 +31°C° 0 mm 1 mps 750 mmHg 51%
    09:00 +32°C° 0 mm 1 mps 750 mmHg 46%
    10:00 +35°C° 0 mm 2 mps 749 mmHg 43%
    11:00 +36°C° 0 mm 3 mps 749 mmHg 39%
    12:00 +37°C° 0 mm 3 mps 749 mmHg 36%
    13:00 +37°C° 0 mm 3 mps 748 mmHg 37%
    14:00 +36°C° 0 mm 3 mps 748 mmHg 38%
    15:00 +36°C° 0 mm 3 mps 748 mmHg 39%
    16:00 +35°C° 0 mm 3 mps 748 mmHg 40%
    17:00 +35°C° 0 mm 2 mps 748 mmHg 40%
    18:00 +33°C° 0 mm 1 mps 748 mmHg 41%
    19:00 +32°C° 0 mm 2 mps 748 mmHg 43%
    20:00 +32°C° 0 mm 2 mps 748 mmHg 44%
    21:00 +31°C° 0 mm 3 mps 749 mmHg 46%
    22:00 +33°C° 0.1 mm 3 mps 749 mmHg 45%
    23:00 +33°C° 0.1 mm 3 mps 748 mmHg 44%

    26 August, Saturday

    Time Temperature Precipitation Wind Pressure Humidity
    00:00 +32°C° 0.1 mm 2 mps 748 mmHg 44%
    01:00 +31°C° 0 mm 3 mps 748 mmHg 46%
    02:00 +30°C° 0 mm 3 mps 747 mmHg 48%
    03:00 +30°C° 0 mm 3 mps 747 mmHg 50%
    04:00 +29°C° 0 mm 3 mps 747 mmHg 51%
    05:00 +29°C° 0 mm 3 mps 747 mmHg 52%
    06:00 +29°C° 0 mm 3 mps 748 mmHg 52%
    07:00 +29°C° 0.1 mm 3 mps 748 mmHg 48%
    08:00 +30°C° 0.1 mm 4 mps 748 mmHg 44%
    09:00 +32°C° 0.1 mm 4 mps 748 mmHg 40%
    10:00 +33°C° 0 mm 5 mps 748 mmHg 37%
    11:00 +34°C° 0 mm 5 mps 748 mmHg 35%
    12:00 +35°C° 0 mm 6 mps 748 mmHg 33%
    13:00 +35°C° 0 mm 6 mps 747 mmHg 33%
    14:00 +34°C° 0 mm 6 mps 747 mmHg 34%
    15:00 +34°C° 0 mm 6 mps 747 mmHg 34%
    16:00 +33°C° 0.1 mm 5 mps 747 mmHg 36%
    17:00 +32°C° 0.1 mm 5 mps 747 mmHg 39%
    18:00 +30°C° 0.1 mm 5 mps 747 mmHg 41%
    19:00 +30°C° 0.4 mm 5 mps 748 mmHg 44%
    20:00 +29°C° 0.4 mm 5 mps 748 mmHg 47%
    21:00 +29°C° 0.4 mm 5 mps 749 mmHg 49%
    22:00 +29°C° 0.3 mm 5 mps 749 mmHg 51%
    23:00 +28°C° 0.3 mm 5 mps 749 mmHg 52%
    Show more